SCP
0 0 0 0 0 0 0 0 0 0 0 0 0 0 0 0 -0 0 0 -0 0 0 0 0 0 0 0 -0 -0 -0 0 0 0 0 -0 -0 0 -0 -0 -0 0 0 0 0 0
0 0 0 0 0 0 0 0 0 0 0 0 0 0 0 0 0 0 -0 -0 0 0 0 0 0 0 -0 -0 -0 -0 0 0 0 0 -0 -0 0 0 -0 -0 0 0 0 0 0
0 0 0 0 0 0 0 0 0 0 0 0 0 0 0 0 0 0 0 0 0 -0 0 0 0 0 -0 -0 -0 -0 0 0 0 0 -0 -0 0 -0 -0 -0 0 0 0 0 0
0 0 0 0 0 0 0 0 0 0 0 0 0 0 0 0 0 0 0 0 0 -0 0 0 0 0 0 0 -0 -0 -0 0 -0 0 0 0 0 0 -0 -0 -0 0 0 0 0
0 0 0 0 0 0 0 0 0 0 0 0 0 0 0 0 0 0 0 0 0 0 0 0 0 0 0 0 0 0 0 0 0 0 0 0 0 -0 -0 -0 -0 0 0 0 0
0 0 0 0 0 0 0 0 0 0 0 0 0 0 0 0 0 0 0 0 0 0 0 0 0 0 0 0 0 0 0 -0 0 -0 -0 0 0 0 -0 -0 0 0 -0 0 0
0 0 0 0 0 0 0 0 -0 0 0 0 0 0 0 0 0 0 0 0 0 0 0 0 0 0 0 0 0 0 0 0 0 0 0 0 0 0 -0 -0 0 -0 -0 0 0
0 0 0 0 0 0 0 0 -0 0 0 0 -0 0 0 0 0 0 0 0 0 0 0 0 0 0 0 0 0 0 0 0 0 -0 0 0 0 -0 -0 -0 0 -0 -0 -0 0
0 0 0 0 0 0 0 0 0 0 0 0 0 0 0 0 0 0 0 0 0 0 0 0 0 0 0 0 0 0 0 0 -0 -0 -0 0 0 0 -0 -0 0 -0 -0 -0 -0
0 0 0 0 0 0 0 0 0 0 0 -0 0 0 0 0 0 0 0 0 0 0 0 0 0 0 -0 0 0 0 0 -0 -0 -0 -0 0 0 0 -0 -0 -0 -0 -0 0 0
0 0 0 -0 0 0 0 0 0 0 0 0 0 0 0 0 0 0 0 0 0 0 0 0 0 0 0 0 -0 0 0 -0 -0 0 -0 0 0 0 0 -0 -0 -0 -0 -0 -0
0 0 0 -0 -0 0 0 0 -0 -0 0 0 0 0 0 0 0 0 0 0 0 0 0 0 0 0 0 -0 0 0 0 0 0 0 -0 0 -0 -0 -0 0 0 0 -0 -0 -0
0 0 0 -0 -0 0 0 0 0 -0 0 0 0 0 0 0 0 0 0 0 0 0 0 0 0 0 0 0 0 0 0 0 -0 -0 -0 -0 -0 -0 -0 -0 0 -0 -0 -0 -0
0 0 0 -0 0 0 0 0 0 -0 0 0 0 0 0 0 0 0 0 0 0 0 0 0 0 0 0 0 0 0 0 0 -0 -0 0 0 0 -0 -0 -0 0 0 -0 -0 0
0 0 0 -0 0 0 0 0 0 -0 0 0 0 0 0 0 0 0 0 0 0 0 0 0 0 0 0 0 0 0 0 0 0 0 0 0 0 0 0 -0 -0 0 -0 -0 0
0 0 0 -0 0 0 0 0 0 0 0 0 0 0 0 0 0 0 0 0 0 0 0 0 0 0 0 0 0 0 0 0 0 0 0 0 0 0 0 0 0 0 -0 -0 -0
0 0 0 0 0 0 0 0 0 0 0 0 0 0 0 0 0 0 0 0 0 0 0 0 0 0 0 0 0 0 0 0 0 0 0 0 0 0 0 0 0 0 -0 -0 -0
0 0 0 0 0 0 0 0 0 0 0 0 0 0 0 0 0 0 0 0 0 0 0 0 0 0 0 0 0 0 0 0 0 0 0 0 0 0 0 -0 -0 -0 -0 -0 0
0 0 0 -0 0 0 0 0 0 0 0 0 0 0 0 0 0 0 0 0 0 0 0 0 0 0 0 0 0 0 0 0 0 0 0 0 0 0 0 0 0 -0 0 0 0
-0 0 0 0 0 0 0 0 0 0 0 0 0 0 0 0 0 0 0 0 0 0 0 0 0 0 0 0 0 0 0 0 0 0 0 0 0 0 0 0 0 0 0 0 0
-0 0 0 0 0 0 0 0 0 -0 0 0 0 0 0 0 0 0 0 0 0 0 0 0 0 0 0 0 0 0 0 0 0 0 0 0 0 0 0 0 0 0 0 0 0
0 0 0 0 0 0 0 0 0 -0 -0 0 0 0 0 0 0 0 0 0 0 0 0 0 0 0 0 0 0 0 0 0 0 0 0 0 0 0 0 0 0 0 0 0 0
0 0 0 0 0 0 0 0 0 0 -0 0 0 0 0 0 0 0 -0 0 0 0 0 0 0 0 0 0 0 0 0 0 0 0 0 0 0 0 0 0 0 0 0 0 0
0 0 0 0 0 0 0 0 0 0 0 0 0 0 0 0 0 0 0 0 0 0 0 0 0 0 0 0 0 0 0 0 0 0 0 0 0 0 0 0 0 0 0 0 0
0 0 0 0 0 0 0 0 0 0 0 0 0 0 0 0 0 0 0 0 0 0 0 0 0 0 0 0 0 0 0 0 0 0 0 0 0 0 0 0 0 0 0 0 0
0 0 0 0 0 0 0 0 0 0 0 0 0 0 0 0 0 0 0 0 0 0 0 0 0 0 0 0 0 0 0 0 0 0 0 0 0 0 0 0 0 0 0 0 0
0 0 0 0 0 0 0 0 0 0 0 0 0 0 0 0 0 0 0 0 0 0 0 0 0 0 0 0 0 0 0 0 0 0 0 0 0 0 0 0 0 0 0 0 0
Wind_Speed_500mb
28 32 33 35 38 39 40 43 41 40 36 34 35 31 25 22 20 13 3 15 12 12 8 18 19 11 6 7 5 6 9 2 6 2 2 14 8 9 4 7 5 5 16 26 53
29 31 34 36 38 39 38 43 40 41 35 34 34 29 23 18 14 9 14 15 9 11 15 20 15 6 6 7 7 8 7 15 11 7 8 18 14 15 2 6 5 7 11 45 51
32 32 35 37 39 40 41 43 43 40 35 35 31 25 18 13 5 9 8 13 8 15 21 18 4 4 5 4 7 6 9 11 7 17 12 18 13 12 13 6 24 21 39 57 54
35 36 38 40 39 39 41 42 44 41 36 32 27 20 13 6 5 5 5 11 12 20 19 9 3 4 5 3 2 3 14 12 2 8 14 17 16 10 22 15 18 22 40 55 54
35 37 38 41 40 40 42 40 43 42 35 28 22 17 8 4 5 5 2 6 15 23 15 7 10 4 5 4 4 5 6 4 1 15 25 20 12 7 11 10 19 36 42 47 47
36 39 39 42 42 42 43 39 40 39 32 24 19 15 6 4 2 5 2 7 22 25 12 11 8 7 4 3 5 6 14 15 9 14 26 15 8 15 21 17 26 44 46 36 35
38 42 42 44 45 44 42 40 39 36 29 20 17 15 12 3 2 5 7 18 28 15 8 9 10 9 3 5 3 10 9 1 8 15 9 21 5 3 14 34 39 51 47 30 23
41 41 44 43 45 45 42 42 36 30 22 18 14 13 11 8 6 3 22 28 21 9 0 6 12 6 4 5 11 7 9 8 9 8 8 16 7 16 24 34 43 53 50 41 28
45 43 44 44 47 45 41 38 29 21 13 13 11 7 10 4 9 12 20 17 8 5 6 4 6 2 0 8 9 12 6 6 14 10 2 9 2 2 11 20 33 47 49 40 29
46 46 46 45 47 44 40 29 21 13 8 13 8 6 7 4 5 13 15 10 4 8 6 4 3 6 6 9 6 4 5 1 2 9 14 9 4 4 6 20 28 38 45 36 26
46 48 47 44 46 40 27 16 16 4 24 24 27 23 23 4 4 13 14 9 1 4 4 7 6 11 11 10 9 8 7 6 6 4 12 7 7 7 4 14 27 37 52 51 37
45 49 48 43 44 22 19 11 14 22 24 37 34 38 34 23 3 14 17 10 7 4 4 9 8 5 10 12 11 10 9 9 5 4 13 4 7 9 6 11 18 33 49 57 54
46 49 49 42 35 15 19 11 32 36 10 21 21 25 18 20 10 21 21 15 8 8 9 9 9 5 11 7 3 6 11 10 14 13 17 15 13 8 9 14 14 23 34 38 37
45 49 51 44 19 33 5 26 38 9 7 12 9 13 21 14 5 22 30 14 3 13 10 9 8 3 10 6 10 1 10 12 18 9 10 3 6 12 11 15 13 35 34 25 16
44 46 47 44 44 34 20 26 19 3 8 4 7 9 24 20 12 16 35 27 11 8 8 10 3 9 5 8 13 7 10 9 8 10 9 3 7 8 5 14 16 37 38 28 19
44 47 49 48 41 17 24 21 1 8 11 8 6 8 8 8 4 10 12 13 2 4 1 12 6 5 10 7 4 16 14 18 11 8 4 4 9 6 13 18 16 29 37 34 26
48 47 50 46 42 31 20 14 7 6 13 14 5 6 6 6 4 7 10 6 7 6 8 10 5 5 7 10 6 12 13 6 6 8 8 1 4 14 10 12 30 37 44 37 30
51 52 46 38 27 19 10 5 4 6 10 7 7 2 14 10 7 7 10 9 3 7 4 5 8 2 4 7 13 6 12 11 10 6 6 7 6 6 10 14 22 35 41 38 38
55 53 40 18 13 14 12 4 10 5 9 14 18 4 4 6 4 6 12 14 16 15 13 8 7 6 3 5 7 8 7 10 14 6 4 4 10 10 5 8 15 25 40 48 44
53 56 15 30 10 23 6 8 6 4 11 7 7 7 6 5 9 9 9 8 13 20 10 7 5 4 2 7 20 8 10 8 7 8 6 8 6 8 4 13 14 20 49 53 45
40 26 23 10 16 7 5 9 7 9 17 7 7 9 7 1 11 8 8 8 12 10 13 10 5 5 5 5 10 5 5 14 11 7 9 3 10 12 11 11 16 28 37 49 54
17 7 2 8 5 2 5 9 3 5 16 12 6 11 7 3 5 9 15 8 10 22 17 9 8 6 2 11 2 6 9 9 9 6 5 7 10 4 5 17 16 29 28 32 45
21 12 5 7 3 4 7 4 6 6 7 6 7 8 1 5 3 5 6 2 7 17 17 15 1 7 12 11 5 12 6 10 11 7 8 11 10 5 13 12 10 22 21 20 31
9 6 4 3 5 2 7 7 7 12 14 14 10 7 3 3 2 4 2 4 5 6 15 18 7 14 14 15 9 9 6 7 9 8 8 10 10 12 15 14 24 20 21 24 27
5 3 3 6 6 5 3 5 5 9 7 6 7 8 6 5 5 5 6 2 6 4 8 9 9 7 8 7 7 6 11 8 5 9 10 7 10 14 10 11 17 15 8 7 4
4 5 4 7 12 6 5 4 4 10 7 9 6 17 5 9 8 6 2 7 2 9 6 5 4 4 11 10 8 7 11 8 4 6 6 5 12 1 7 8 15 16 12 15 17
5 5 6 6 9 4 1 5 6 10 15 25 16 4 5 4 6 5 4 4 7 4 4 7 11 6 5 3 7 7 6 8 6 1 6 5 11 1 7 10 12 17 17 20 21
Wind_Direction_500mb
346 344 344 340 338 345 341 336 339 338 336 339 334 326 323 327 312 313 101 137 139 151 129 143 145 148 138 166 146 120 65 243 239 215 112 170 141 150 82 169 135 158 189 168 161
347 343 340 338 340 342 338 334 339 337 334 336 336 330 332 334 332 67 134 145 146 153 139 140 145 148 164 151 150 100 106 212 212 216 191 179 169 136 77 204 230 152 156 170 169
342 342 340 337 339 339 336 334 337 337 333 332 334 332 334 339 97 68 128 178 181 154 135 134 135 141 128 155 175 157 187 203 249 241 192 172 120 133 154 257 229 180 165 176 178
336 341 339 336 336 334 332 332 334 337 332 329 331 329 326 332 122 51 92 180 192 159 138 116 80 118 89 62 96 19 254 235 145 142 129 124 143 159 187 255 230 213 189 188 184
336 335 335 332 333 331 328 329 331 332 329 325 329 329 328 296 78 23 72 165 176 153 141 86 67 96 92 281 356 157 277 326 106 106 136 146 147 157 197 253 217 203 201 196 194
336 332 334 332 331 328 325 326 326 325 323 319 325 324 305 276 61 358 132 150 154 146 124 68 36 58 114 274 125 280 284 283 80 160 149 114 125 165 209 206 191 194 207 198 203
335 331 335 333 329 326 323 323 319 319 316 307 319 316 265 204 206 0 156 142 146 144 99 56 24 10 321 297 312 309 326 127 40 132 130 120 76 285 233 186 191 194 204 192 199
332 331 333 332 328 323 325 322 319 314 310 299 317 307 249 199 212 95 132 132 143 158 73 51 350 351 216 295 18 21 55 45 325 355 110 178 257 344 172 188 193 199 212 212 213
330 331 332 334 328 323 327 324 324 315 303 315 310 296 260 239 213 169 152 130 126 59 349 315 340 30 6 86 15 9 102 50 337 49 52 55 227 89 201 206 208 208 215 220 234
329 330 332 336 328 329 337 330 326 333 272 316 269 287 242 49 197 179 174 184 120 18 103 92 82 57 37 75 176 77 40 86 238 314 42 67 71 77 218 227 229 222 227 220 233
330 328 334 337 329 337 358 11 348 335 316 267 272 272 275 294 174 206 197 200 358 42 67 25 73 222 212 164 155 138 192 201 265 126 81 20 90 19 40 239 250 248 246 244 249
332 328 334 337 329 346 7 66 35 336 301 298 265 255 254 265 231 203 196 159 131 169 83 18 235 158 139 171 178 166 176 173 57 54 85 70 32 356 324 243 232 254 258 260 264
334 332 334 336 332 359 357 21 342 330 259 290 244 240 232 208 208 200 192 174 131 158 188 180 238 61 143 229 291 167 161 176 146 100 42 102 354 322 301 305 282 261 269 266 266
333 334 336 336 335 343 72 337 333 324 24 278 234 226 183 174 230 201 198 170 180 192 181 220 268 272 143 211 135 239 171 139 130 122 164 206 237 269 246 280 269 254 260 250 235
331 332 332 332 325 325 310 328 335 91 348 252 221 171 173 165 145 182 199 206 185 183 101 257 269 48 345 204 165 182 96 112 108 92 100 344 82 273 110 255 235 237 241 219 201
328 330 326 325 322 321 326 325 348 37 251 334 150 144 131 179 128 115 160 200 219 175 344 241 259 229 209 77 130 160 68 38 47 80 60 250 146 248 184 205 203 227 223 216 207
326 328 322 318 312 306 319 331 38 194 332 325 323 154 165 150 182 126 137 173 167 93 4 331 288 278 154 88 75 75 69 16 14 19 207 240 59 244 247 224 183 204 208 207 202
324 326 323 317 300 278 287 51 201 281 273 321 311 282 171 156 212 151 120 168 220 90 101 114 345 147 172 180 164 97 143 150 177 195 243 16 239 263 254 212 188 211 210 205 210
323 327 330 335 261 220 182 125 217 222 313 322 323 100 236 197 143 151 177 188 193 168 170 146 276 325 57 125 110 180 72 150 102 21 86 253 292 341 54 135 186 199 213 213 214
327 328 340 329 203 166 103 209 247 263 314 358 343 3 210 183 159 146 197 204 193 191 155 203 126 4 116 83 43 112 148 75 19 134 194 308 275 242 230 222 196 207 215 219 222
326 326 355 95 129 166 156 231 276 291 3 345 318 295 299 107 179 180 217 261 180 193 145 148 111 272 35 35 176 60 65 57 110 111 144 128 280 220 255 276 210 241 234 226 226
316 339 339 33 33 10 183 206 254 297 309 267 232 240 240 275 227 208 215 244 152 148 161 183 137 115 152 315 17 110 128 120 115 210 74 133 259 314 289 304 278 278 276 254 241
318 283 292 243 147 286 281 311 314 292 275 291 272 242 319 308 308 207 188 123 224 155 164 180 239 77 360 4 6 72 90 109 109 94 184 136 257 247 336 334 319 298 290 282 274
313 348 322 133 97 100 11 255 276 275 262 237 265 268 283 311 33 299 55 5 104 141 132 121 96 155 179 199 146 117 85 78 102 106 166 225 290 310 325 333 328 326 298 289 284
297 286 356 318 1 4 219 306 322 310 271 282 303 227 253 229 352 0 322 24 70 144 67 106 106 105 41 88 83 119 139 151 131 164 148 228 208 273 297 309 317 332 344 335 330
296 342 346 279 304 302 344 51 336 318 267 273 202 302 227 205 199 204 265 24 345 8 75 19 121 111 34 26 80 126 148 176 189 138 291 338 279 207 7 11 29 36 52 62 71
257 295 322 322 341 84 277 300 264 349 265 254 285 252 198 207 144 101 100 23 7 33 90 71 124 101 172 347 63 359 223 167 116 35 177 228 240 54 42 37 26 40 51 63 70
Wind_Speed_850mb
28 32 33 35 38 39 40 43 41 40 36 34 35 31 25 22 20 13 3 15 12 12 8 18 19 11 6 7 5 6 9 2 6 2 2 14 8 9 4 7 5 5 16 26 53
29 31 34 36 38 39 38 43 40 41 35 34 34 29 23 18 14 9 14 15 9 11 15 20 15 6 6 7 7 8 7 15 11 7 8 18 14 15 2 6 5 7 11 45 51
32 32 35 37 39 40 41 43 43 40 35 35 31 25 18 13 5 9 8 13 8 15 21 18 4 4 5 4 7 6 9 11 7 17 12 18 13 12 13 6 24 21 39 57 54
35 36 38 40 39 39 41 42 44 41 36 32 27 20 13 6 5 5 5 11 12 20 19 9 3 4 5 3 2 3 14 12 2 8 14 17 16 10 22 15 18 22 40 55 54
35 37 38 41 40 40 42 40 43 42 35 28 22 17 8 4 5 5 2 6 15 23 15 7 10 4 5 4 4 5 6 4 1 15 25 20 12 7 11 10 19 36 42 47 47
36 39 39 42 42 42 43 39 40 39 32 24 19 15 6 4 2 5 2 7 22 25 12 11 8 7 4 3 5 6 14 15 9 14 26 15 8 15 21 17 26 44 46 36 35
38 42 42 44 45 44 42 40 39 36 29 20 17 15 12 3 2 5 7 18 28 15 8 9 10 9 3 5 3 10 9 1 8 15 9 21 5 3 14 34 39 51 47 30 23
41 41 44 43 45 45 42 42 36 30 22 18 14 13 11 8 6 3 22 28 21 9 0 6 12 6 4 5 11 7 9 8 9 8 8 16 7 16 24 34 43 53 50 41 28
45 43 44 44 47 45 41 38 29 21 13 13 11 7 10 4 9 12 20 17 8 5 6 4 6 2 0 8 9 12 6 6 14 10 2 9 2 2 11 20 33 47 49 40 29
46 46 46 45 47 44 40 29 21 13 8 13 8 6 7 4 5 13 15 10 4 8 6 4 3 6 6 9 6 4 5 1 2 9 14 9 4 4 6 20 28 38 45 36 26
46 48 47 44 46 40 27 16 16 4 24 24 27 23 23 4 4 13 14 9 1 4 4 7 6 11 11 10 9 8 7 6 6 4 12 7 7 7 4 14 27 37 52 51 37
45 49 48 43 44 22 19 11 14 22 24 37 34 38 34 23 3 14 17 10 7 4 4 9 8 5 10 12 11 10 9 9 5 4 13 4 7 9 6 11 18 33 49 57 54
46 49 49 42 35 15 19 11 32 36 10 21 21 25 18 20 10 21 21 15 8 8 9 9 9 5 11 7 3 6 11 10 14 13 17 15 13 8 9 14 14 23 34 38 37
45 49 51 44 19 33 5 26 38 9 7 12 9 13 21 14 5 22 30 14 3 13 10 9 8 3 10 6 10 1 10 12 18 9 10 3 6 12 11 15 13 35 34 25 16
44 46 47 44 44 34 20 26 19 3 8 4 7 9 24 20 12 16 35 27 11 8 8 10 3 9 5 8 13 7 10 9 8 10 9 3 7 8 5 14 16 37 38 28 19
44 47 49 48 41 17 24 21 1 8 11 8 6 8 8 8 4 10 12 13 2 4 1 12 6 5 10 7 4 16 14 18 11 8 4 4 9 6 13 18 16 29 37 34 26
48 47 50 46 42 31 20 14 7 6 13 14 5 6 6 6 4 7 10 6 7 6 8 10 5 5 7 10 6 12 13 6 6 8 8 1 4 14 10 12 30 37 44 37 30
51 52 46 38 27 19 10 5 4 6 10 7 7 2 14 10 7 7 10 9 3 7 4 5 8 2 4 7 13 6 12 11 10 6 6 7 6 6 10 14 22 35 41 38 38
55 53 40 18 13 14 12 4 10 5 9 14 18 4 4 6 4 6 12 14 16 15 13 8 7 6 3 5 7 8 7 10 14 6 4 4 10 10 5 8 15 25 40 48 44
53 56 15 30 10 23 6 8 6 4 11 7 7 7 6 5 9 9 9 8 13 20 10 7 5 4 2 7 20 8 10 8 7 8 6 8 6 8 4 13 14 20 49 53 45
40 26 23 10 16 7 5 9 7 9 17 7 7 9 7 1 11 8 8 8 12 10 13 10 5 5 5 5 10 5 5 14 11 7 9 3 10 12 11 11 16 28 37 49 54
17 7 2 8 5 2 5 9 3 5 16 12 6 11 7 3 5 9 15 8 10 22 17 9 8 6 2 11 2 6 9 9 9 6 5 7 10 4 5 17 16 29 28 32 45
21 12 5 7 3 4 7 4 6 6 7 6 7 8 1 5 3 5 6 2 7 17 17 15 1 7 12 11 5 12 6 10 11 7 8 11 10 5 13 12 10 22 21 20 31
9 6 4 3 5 2 7 7 7 12 14 14 10 7 3 3 2 4 2 4 5 6 15 18 7 14 14 15 9 9 6 7 9 8 8 10 10 12 15 14 24 20 21 24 27
5 3 3 6 6 5 3 5 5 9 7 6 7 8 6 5 5 5 6 2 6 4 8 9 9 7 8 7 7 6 11 8 5 9 10 7 10 14 10 11 17 15 8 7 4
4 5 4 7 12 6 5 4 4 10 7 9 6 17 5 9 8 6 2 7 2 9 6 5 4 4 11 10 8 7 11 8 4 6 6 5 12 1 7 8 15 16 12 15 17
5 5 6 6 9 4 1 5 6 10 15 25 16 4 5 4 6 5 4 4 7 4 4 7 11 6 5 3 7 7 6 8 6 1 6 5 11 1 7 10 12 17 17 20 21
Wind_Direction_850mb
346 344 344 340 338 345 341 336 339 338 336 339 334 326 323 327 312 313 101 137 139 151 129 143 145 148 138 166 146 120 65 243 239 215 112 170 141 150 82 169 135 158 189 168 161
347 343 340 338 340 342 338 334 339 337 334 336 336 330 332 334 332 67 134 145 146 153 139 140 145 148 164 151 150 100 106 212 212 216 191 179 169 136 77 204 230 152 156 170 169
342 342 340 337 339 339 336 334 337 337 333 332 334 332 334 339 97 68 128 178 181 154 135 134 135 141 128 155 175 157 187 203 249 241 192 172 120 133 154 257 229 180 165 176 178
336 341 339 336 336 334 332 332 334 337 332 329 331 329 326 332 122 51 92 180 192 159 138 116 80 118 89 62 96 19 254 235 145 142 129 124 143 159 187 255 230 213 189 188 184
336 335 335 332 333 331 328 329 331 332 329 325 329 329 328 296 78 23 72 165 176 153 141 86 67 96 92 281 356 157 277 326 106 106 136 146 147 157 197 253 217 203 201 196 194
336 332 334 332 331 328 325 326 326 325 323 319 325 324 305 276 61 358 132 150 154 146 124 68 36 58 114 274 125 280 284 283 80 160 149 114 125 165 209 206 191 194 207 198 203
335 331 335 333 329 326 323 323 319 319 316 307 319 316 265 204 206 0 156 142 146 144 99 56 24 10 321 297 312 309 326 127 40 132 130 120 76 285 233 186 191 194 204 192 199
332 331 333 332 328 323 325 322 319 314 310 299 317 307 249 199 212 95 132 132 143 158 73 51 350 351 216 295 18 21 55 45 325 355 110 178 257 344 172 188 193 199 212 212 213
330 331 332 334 328 323 327 324 324 315 303 315 310 296 260 239 213 169 152 130 126 59 349 315 340 30 6 86 15 9 102 50 337 49 52 55 227 89 201 206 208 208 215 220 234
329 330 332 336 328 329 337 330 326 333 272 316 269 287 242 49 197 179 174 184 120 18 103 92 82 57 37 75 176 77 40 86 238 314 42 67 71 77 218 227 229 222 227 220 233
330 328 334 337 329 337 358 11 348 335 316 267 272 272 275 294 174 206 197 200 358 42 67 25 73 222 212 164 155 138 192 201 265 126 81 20 90 19 40 239 250 248 246 244 249
332 328 334 337 329 346 7 66 35 336 301 298 265 255 254 265 231 203 196 159 131 169 83 18 235 158 139 171 178 166 176 173 57 54 85 70 32 356 324 243 232 254 258 260 264
334 332 334 336 332 359 357 21 342 330 259 290 244 240 232 208 208 200 192 174 131 158 188 180 238 61 143 229 291 167 161 176 146 100 42 102 354 322 301 305 282 261 269 266 266
333 334 336 336 335 343 72 337 333 324 24 278 234 226 183 174 230 201 198 170 180 192 181 220 268 272 143 211 135 239 171 139 130 122 164 206 237 269 246 280 269 254 260 250 235
331 332 332 332 325 325 310 328 335 91 348 252 221 171 173 165 145 182 199 206 185 183 101 257 269 48 345 204 165 182 96 112 108 92 100 344 82 273 110 255 235 237 241 219 201
328 330 326 325 322 321 326 325 348 37 251 334 150 144 131 179 128 115 160 200 219 175 344 241 259 229 209 77 130 160 68 38 47 80 60 250 146 248 184 205 203 227 223 216 207
326 328 322 318 312 306 319 331 38 194 332 325 323 154 165 150 182 126 137 173 167 93 4 331 288 278 154 88 75 75 69 16 14 19 207 240 59 244 247 224 183 204 208 207 202
324 326 323 317 300 278 287 51 201 281 273 321 311 282 171 156 212 151 120 168 220 90 101 114 345 147 172 180 164 97 143 150 177 195 243 16 239 263 254 212 188 211 210 205 210
323 327 330 335 261 220 182 125 217 222 313 322 323 100 236 197 143 151 177 188 193 168 170 146 276 325 57 125 110 180 72 150 102 21 86 253 292 341 54 135 186 199 213 213 214
327 328 340 329 203 166 103 209 247 263 314 358 343 3 210 183 159 146 197 204 193 191 155 203 126 4 116 83 43 112 148 75 19 134 194 308 275 242 230 222 196 207 215 219 222
326 326 355 95 129 166 156 231 276 291 3 345 318 295 299 107 179 180 217 261 180 193 145 148 111 272 35 35 176 60 65 57 110 111 144 128 280 220 255 276 210 241 234 226 226
316 339 339 33 33 10 183 206 254 297 309 267 232 240 240 275 227 208 215 244 152 148 161 183 137 115 152 315 17 110 128 120 115 210 74 133 259 314 289 304 278 278 276 254 241
318 283 292 243 147 286 281 311 314 292 275 291 272 242 319 308 308 207 188 123 224 155 164 180 239 77 360 4 6 72 90 109 109 94 184 136 257 247 336 334 319 298 290 282 274
313 348 322 133 97 100 11 255 276 275 262 237 265 268 283 311 33 299 55 5 104 141 132 121 96 155 179 199 146 117 85 78 102 106 166 225 290 310 325 333 328 326 298 289 284
297 286 356 318 1 4 219 306 322 310 271 282 303 227 253 229 352 0 322 24 70 144 67 106 106 105 41 88 83 119 139 151 131 164 148 228 208 273 297 309 317 332 344 335 330
296 342 346 279 304 302 344 51 336 318 267 273 202 302 227 205 199 204 265 24 345 8 75 19 121 111 34 26 80 126 148 176 189 138 291 338 279 207 7 11 29 36 52 62 71
257 295 322 322 341 84 277 300 264 349 265 254 285 252 198 207 144 101 100 23 7 33 90 71 124 101 172 347 63 359 223 167 116 35 177 228 240 54 42 37 26 40 51 63 70